Regional Weather Roundup
Issued by NWS Newport/Morehead, NC

Home | Current Version | Previous Version | Text Only | Print | Product List | Glossary On
Versions: 1 2 3 4 5 6 7 8 9 10 11 12 13 14 15 16 17 18 19 20 21 22 23 24 25 26 27 28 29 30 31 32 33 34 35 36 37 38 39 40 41 42 43 44 45 46 47 48 49 50
000
ASUS42 KMHX 222322
RWRMHX
WEATHER ROUNDUP FOR EASTERN NORTH CAROLINA
NATIONAL WEATHER SERVICE NEWPORT/MOREHEAD CITY NC
700 PM EDT FRI AUG 22 2014

NOTE: "FAIR" INDICATES FEW OR NO CLOUDS BELOW 12,000 FEET
WITH NO SIGNIFICANT WEATHER AND/OR OBSTRUCTIONS TO VISIBILITY

NCZ015>017-031-032-045>047-102-103-230000-
NORTH COAST

CITY           SKY/WX    TMP DP  RH WIND       PRES   REMARKS
EDENTON        MOCLDY    81  74  81 CALM      29.94S
ELIZABETH CITY CLOUDY    81  68  64 NW6       29.94S
KITTY HAWK     CLOUDY    79  72  78 N3        29.93S
MANTEO         CLOUDY    81  72  74 NE7       29.94S

$$

NCZ045>047-081-094-103-104-230000-
CENTRAL COAST

CITY           SKY/WX    TMP DP  RH WIND       PRES   REMARKS
FRISCO         CLOUDY    83  72  69 N3        29.92S
SWANQUARTER      N/A     84 N/A N/A VRB5      29.88S

$$

NCZ095-097-098-100-101-230000-
SOUTHERN COAST

CITY           SKY/WX    TMP DP  RH WIND       PRES   REMARKS
BEAUFORT       PTCLDY    86  78  77 W9        29.93R
CEDAR ISLAND     N/A     86 N/A N/A N12       29.97S
JACKSONVILLE   PTCLDY    88  71  57 NW6       29.93R
NEWPORT        NOT AVBL
PINEY ISLAND   MOCLDY    88  76  67 N8        29.92S
WILMINGTON     LGT RAIN  80  75  84 E8        29.94R


$$

NCZ011>013-027>030-043-044-078>080-089-090>093-098-230000-
COASTAL PLAIN

CITY           SKY/WX    TMP DP  RH WIND       PRES   REMARKS
AHOSKIE        MOCLDY    79  74  85 CALM      29.94S
CLINTON        HVY RAIN  74  71  91 N18G44    30.00R
ELIZABETHTOWN  PTSUNNY   85  69  59 S6        29.94S
GOLDSBORO      MOCLDY    80  75  82 SW8       29.93S
GREENVILLE     MOCLDY    84  72  65 N3        29.96S
HAVELOCK       MOCLDY    89  72  56 NW7       29.94R
KENANSVILLE    MOCLDY    82  67  61 NW13G23   29.99R
KINSTON        MOCLDY    86  72  62 N5        29.95R
NEW BERN       MOCLDY    90  72  55 NW6       29.94S
RICHLANDS      PTCLDY    84  72  65 CALM      29.94S
ROANOKE RAPIDS NOT AVBL
ROCKY MOUNT    MOCLDY    84  73  69 N5        29.95S
WASHINGTON     MOCLDY    82  73  74 CALM      29.94S
WHITEVILLE     MOSUNNY   90  76  64 S6        29.93S HX 102

$$

AMZ130-135-150-152-154-156-158-170-250-252-270-ANZ085-086-088-633-658-670-230000-
MARINE OBSERVATIONS

STATION/POSITION TIME  TEMP    WIND        PRES    WAVE   SWELL
                       AIR SEA DIR/SP/G            HT/PER HT/PER
                 (UTC) (F)     (DEG/KT/KT) (MB)    (FT/S) (FT/S)
CHESAPEAKE LIGHT 2300   78      20/  7/  7 1014.5
BUOY 44014       2300   78 79   20/  8/ 10 1013.2    2/ 8   2/ 8
DUCK             2300   80 81   20/ 11/ 13 1012.9
2E DUCK          2300                        N/A     2/ 7
OREGON INLET     2300   80 85   10/ 10/ 12 1013.6
BUOY 44095       2300      80                N/A     2/ 8
20E OREGON INLET NOT AVBL
HATTERAS CG      2300   85 85  340/ 10/ 11 1013.8
DIAMOND BUOY     2300   81     350/  8/ 10 1012.9    2/ 8   2/ 8
CAPE LOOKOUT     2300   85     250/ 11/ 13 1013.4
BEAUFORT LAB     2300   86 83  250/  4/  8 1013.3
30 SE NEW RIVER  2300   84 83  240/  8/ 10 1013.3    1/10   2/10
5 SE WRIGHTSVILL 2300   82 84  210/ 10/ 12   N/A
BUOY 41002       2235   82 83  250/ 12/ 16 1015.3    2/ 5   2/ 8
BUOY 41004       2300   86 86  190/ 12/ 14 1013.6    2/ 3   2/ 8

$$


USA.gov is the U.S. government's official web portal to all federal, state and local government web resources and services.